星链-30078 (STARLINK-30078 )

导读

STARLINK-30078是美国太空探索技术公司(SpaceX)星链互联网卫星星座的一员,于2023年6月4日发射入轨。星链项目旨在为全球提供高速低延迟宽带互联网服务,该卫星承担星座组网任务,运行在近地轨道,是SpaceX批量部署星链卫星计划中的产物,推进了全球卫星互联网覆盖的进程。

Basic Information
目录编号:
56841
目录名称:
STARLINK-30078
国际标识:
2023-079U
轨道中心:
EARTH
卫星名称:
星链-30078
卫星全名:
星链-30078 (STARLINK-30078 )
卫星状态:
在轨 (已飞行1189 天)
发射日期:
2023-06-04 UTC
国别 :
美国 (US)
星等 :
--
Orbit Information
数据来源 国际轨道数据 AOE轨道数据
星历时间 2026-09-05T08:19:25+0800
9小时前
查看轨道信息
2026-09-03T22:00:00+0800
1天前
查看轨道信息
半长轴 6861.198km 6861.195km
偏心率 0.0001139 0.0001103
轨道倾角 43.001° 43.000°
近地点辐角 283.718° 295.679°
升交点赤经 126.637° 134.716°
平近点角 76.355° 110.374°
近地点 482.279km 482.301km
远地点 483.843km 483.815km
周期 94.267分钟 94.267分钟
每日圈数 15.275761 15.275773
Detailed Information
固有亮度:
5
最大亮度:
0.5
卫星平台:
Starlink v2.0 mini
覆盖范围:
全球
运营商:
太空探索技术公司
运营商所在国:
美国
制造商(研发单位):
太空探索技术公司
制造商所在国:
美国
使用方式:
暂无
Satellite Introduction
星链(Starlink)计划是由太空探索技术公司(SpaceX)提出的一个巨型低轨卫星互联网星座项目,计划在2019年至2024年间在太空搭建由约1.2万颗卫星组成的“星链”网络,其中1584颗将部署在地球上空550千米处的近地轨道,并从2020年开始工作。该卫星仍在工作。
2D Orbit Map
3D Orbit Map
Orbit Altitude Analysis Chart
Orbit Inclination Analysis Chart
Orbit Comprehensive Analysis Chart
View Comprehensive Chart
Conjunction Data List
Event ID Objects TCA Miss Dist (km) Collision Risk Probability Collision Risk Index (CRI) Action
CDM_260907-090205-684106-289821
2026-09-07T
09:02:30+0000
0.553 km
远距离
1.072617E-4 高风险 0.76
CDM_260907-072805-684106-289821
2026-09-07T
07:28:21+0000
1.687 km
极远距离
2.99271E-6 低风险 0.45
CDM_260906-140705-684106-187222
OBJECT D (61872)
2026-09-06T
14:07:28+0000
2.764 km
极远距离
1.454127E-6 低风险 0.38
CDM_260907-103605-684106-289821
2026-09-07T
10:36:39+0000
2.565 km
极远距离
1.140979E-6 低风险 0.36